Location: Luz Observatory
(34.5000°N, 117.2833°W)
Time: 11:34:46
(UTC-07:00)

Okean 3 Rocket - Visible Passes

Search period start: 30 September 2016 00:00
Search period end: 10 October 2016 00:00
Orbit: 616 x 645 km, 82.5° (Epoch: 29 September)

Date Brightness Start Highest point End Pass type
(mag) Time Alt. Az. Time Alt. Az. Time Alt. Az.
30 Sep 3.7 18:52:20 10° N 18:56:54 90° E 19:01:26 10° S visible
01 Oct 5.2 19:13:28 10° NNW 19:17:44 41° W 19:21:58 10° SSW visible
02 Oct 7.6 06:08:23 10° E 06:09:21 11° E 06:10:19 10° ENE visible
02 Oct 6.6 19:35:13 10° NW 19:38:27 19° W 19:41:40 10° SW visible
05 Oct 6.2 18:59:28 10° NNW 19:03:16 27° W 19:07:02 10° SW visible
06 Oct 6.9 05:51:57 10° SE 05:54:48 17° E 05:57:39 10° NE visible
06 Oct 7.2 19:21:58 10° WNW 19:23:55 13° W 19:25:51 10° WSW visible
07 Oct 5.5 06:11:26 10° SSE 06:15:29 35° E 06:19:35 10° NNE visible
09 Oct 7.2 05:17:56 10° ESE 05:19:39 12° E 05:21:22 10° ENE visible
09 Oct 6.9 18:45:46 10° NW 18:48:46 18° W 18:51:45 10° SW visible
